Location: Austin, TX
(30.3000°N, 97.7500°W)
Time: 02:02:44
(UTC-05:00)

Cosmos 1666 - Visible Passes

Search period start: 03 September 2014 00:00
Search period end: 13 September 2014 00:00
Orbit: 517 x 544 km, 82.5° (Epoch: 02 September)

Date Brightness Start Highest point End Pass type
(mag) Time Alt. Az. Time Alt. Az. Time Alt. Az.
03 Sep 3.6 21:26:38 35° NE 21:26:38 35° NE 21:29:09 10° NNE visible
04 Sep 2.9 21:15:04 47° E 21:15:04 47° E 21:18:43 10° NNE visible
05 Sep 3.0 21:02:57 27° SSE 21:04:36 43° E 21:08:16 10° NNE visible
06 Sep 3.1 20:50:36 10° SSE 20:54:11 39° E 20:57:49 10° NNE visible
07 Sep 3.2 20:40:15 10° SSE 20:43:47 36° E 20:47:21 10° NNE visible
08 Sep 3.4 20:29:54 10° SSE 20:33:22 33° E 20:36:52 10° NNE visible
08 Sep 6.1 22:08:42 10° W 22:09:28 11° WNW 22:10:13 10° WNW visible
09 Sep 3.5 20:19:33 10° SSE 20:22:56 31° E 20:26:23 10° NNE visible
09 Sep 6.1 21:57:42 10° W 21:59:00 11° WNW 22:00:19 10° NW visible
10 Sep 3.6 20:09:12 10° SSE 20:12:31 28° E 20:15:52 10° NNE visible
10 Sep 6.1 21:46:52 10° WSW 21:48:33 12° WNW 21:50:14 10° NW visible
11 Sep 6.0 21:36:07 10° WSW 21:38:05 14° WNW 21:40:03 10° NW visible
12 Sep 6.0 21:25:25 10° WSW 21:27:37 15° WNW 21:29:50 10° NW visible
